Regional Weather Roundup
Issued by NWS

Home | Current Version | Previous Version | Graphics & Text | Print | Product List | Glossary On
Versions: 1 2 3 4 5 6 7 8 9 10 11 12 13 14 15 16 17 18 19 20 21 22 23 24 25 26 27 28 29 30 31 32 33 34 35 36 37 38 39 40 41 42 43 44 45 46 47 48 49 50
000
ASUS43 KOAX 301710
RWRNE

WEATHER ROUNDUP FOR NEBRASKA
NATIONAL WEATHER SERVICE OMAHA NE
1200 PM CDT THU MAR 30 2017

NOTES: SATELLITE DATA IS BEING USED TO AUGMENT CLOUD COVER ABOVE
       12000 FEET.
       "FAIR" INDICATES FEW OR NO CLOUDS BELOW 12,000 FEET WITH NO
       SIGNIFICANT WEATHER AND/OR OBSTRUCTIONS TO VISIBILITY.

  * THESE STATIONS DO NOT REPORT WEATHER SUCH AS RAIN...SNOW OR FOG.

NEZ001>004-019>022-054>056-301800-
NEBRASKA PANHANDLE

CITY           SKY/WX    TMP DP  RH WIND       PRES   REMARKS
SCOTTSBLUFF    CLOUDY    45  39  79 SE5       29.76F
ALLIANCE       CLOUDY    46  39  76 SE9       29.77S
CHADRON        CLOUDY    45  40  82 CALM      29.76S
KIMBALL        CLOUDY    55  42  62 N8        29.77S
SIDNEY         CLOUDY    49  40  71 E5        29.77F
$$

NEZ057>060-069>072-079>082-301800-
SOUTHWEST NEBRASKA

CITY           SKY/WX    TMP DP  RH WIND       PRES   REMARKS
NORTH PLATTE   CLOUDY    40  33  76 N7        29.82F
IMPERIAL       MOSUNNY   46  38  73 VRB3      29.80F
LEXINGTON      CLOUDY    38  35  87 N9        29.82F WCI  32
MCCOOK         CLOUDY    41  36  82 NE10      29.82S
OGALLALA       CLOUDY    46  39  76 E3        29.80F
$$

NEZ005>010-023>029-035>040-094-301800-
NORTH CENTRAL NEBRASKA

CITY           SKY/WX    TMP DP  RH WIND       PRES   REMARKS
VALENTINE      CLOUDY    37  32  82 E3        29.84S
AINSWORTH      CLOUDY    37  35  91 NE3       29.83S
BROKEN BOW     CLOUDY    39  33  79 NE12      29.81S WCI  32
O`NEILL        CLOUDY    39  38  95 N9        29.83S WCI  33
ORD            CLOUDY    42  35  76 N14       29.79F
THEDFORD       CLOUDY    38  35  90 E3        29.84R
$$

NEZ041-046>049-061>064-073>077-083>087-301800-
SOUTH CENTRAL NEBRASKA

CITY           SKY/WX    TMP DP  RH WIND       PRES   REMARKS
GRAND ISLAND   CLOUDY    40  38  93 N17       29.78S WCI  31
AURORA         CLOUDY    40  39  97 N16       29.77S WCI  32
HASTINGS       CLOUDY    41  37  86 N21       29.78S
HEBRON         CLOUDY    41  38  91 N12G20    29.73F
HOLDREGE       CLOUDY    40  35  82 N15       29.80S WCI  31
KEARNEY *      CLOUDY    41  34  75 N15       29.80S
YORK           CLOUDY    39  39 100 N21       29.75F WCI  29
$$

NEZ011>018-030>034-042>045-301800-
NORTHEAST NEBRASKA

CITY           SKY/WX    TMP DP  RH WIND       PRES   REMARKS
NORFOLK        CLOUDY    39  36  89 N13       29.78S WCI  31
ALBION         CLOUDY    40  37  87 N8        29.79S
BLAIR          CLOUDY    42  40  92 N15G21    29.70F
FREMONT        CLOUDY    40  39  97 N12G18    29.75S WCI  33
TEKAMAH        CLOUDY    41  38  89 N16       29.74F
WAYNE          CLOUDY    40  39  99 N14       29.78S WCI  32
$$

NEZ050>053-065>068-078-088>093-301800-
SOUTHEAST NEBRASKA

CITY           SKY/WX    TMP DP  RH WIND       PRES   REMARKS
LINCOLN        CLOUDY    42  40  92 N18G28    29.73S
OMAHA EPPLEY   CLOUDY    43  38  82 N17       29.70F
BEATRICE       CLOUDY    41  41  99 N12G24    29.70S
FALLS CITY     CLOUDY    45  43  93 N12       29.63F
NEBRASKA CITY  CLOUDY    42  42 100 N16       29.67S FOG
PLATTSMOUTH    CLOUDY    42  39  87 N16G23    29.68S
$$

NEZ044-045-051>053-067-301800-
OMAHA AREA

CITY           SKY/WX    TMP DP  RH WIND       PRES   REMARKS
OMAHA EPPLEY   CLOUDY    43  38  82 N17       29.70F
BLAIR          CLOUDY    42  40  92 N15G21    29.70F
FREMONT        CLOUDY    40  39  97 N12G18    29.75S WCI  33
MILLARD        CLOUDY    44  40  88 N8G17     29.71F
OFFUTT AFB     CLOUDY    43  39  87 N14       29.70S
PLATTSMOUTH    CLOUDY    42  39  87 N16G23    29.68S
WAHOO          CLOUDY    41  39  93 N20       29.73S
$$



USA.gov is the U.S. government's official web portal to all federal, state and local government web resources and services.